Location: Taipo
(41.0000°S, 175.9500°E)
Time: 11:08:57
(UTC+00:00)

ARIANE 5 R/B - Pass Details

Date: 18 April 2024
Orbit: 747 x 793 km, 98.8° (Epoch: 24 May)

Event Time Altitude Azimuth Distance (km) Brightness Sun altitude
Rises 16:55:03 0° 359° (N) 3,244 5.7 -22.4°
Reaches altitude 10° 16:57:28 10° 352° (N) 2,318 4.9 -22.0°
Enters shadow 17:01:49 43° 297° (WNW) 1,072 2.8 -21.2°
Exits shadow 17:06:58 11° 208° (SSW) 2,218 4.6 -20.2°
Drops below altitude 10° 17:07:14 10° 207° (SSW) 2,321 4.8 -20.1°
Sets 17:09:39 0° 200° (SSW) 3,248 5.6 -19.7°
